EW9774 Weather Reports


Display with metric or nautical units.
time (UTC)temp
F
wind
direction
speed
MPH
gust
MPH
rain 1hr
in
rain 24hr
in
rain mn
in
humidity
%
barometer
mb
20210801070026 71 182 3.0 0.0 0.00 0.00 0.00 79 1016.8
20210801064535 71 182 5.0 0.0 0.00 0.00 0.00 78 1016.8
20210801061527 71 185 2.0 0.0 0.00 0.00 0.00 73 1017.5
20210801060026 71 171 1.0 0.0 0.00 0.00 0.00 74 1017.9
20210801054528 71 183 3.0 0.0 0.00 0.00 0.00 76 1017.5
20210801053025 71 148 2.0 0.0 0.00 0.00 0.00 77 1017.9
20210801051538 71 170 1.0 0.0 0.00 0.00 0.00 78 1017.9
20210801050023 71 157 1.0 0.0 0.00 0.00 0.00 79 1017.9
20210801044531 71 157 1.0 0.0 0.00 0.00 0.00 80 1017.5
20210801043029 70 163 1.0 0.0 0.00 0.00 0.00 81 1017.5
20210801041530 71 183 1.0 0.0 0.00 0.00 0.00 79 1017.2
20210801040028 72 196 1.0 0.0 0.00 0.00 0.00 77 1017.2
20210801034539 72 197 1.0 0.0 0.00 0.00 0.00 77 1016.8
20210801033028 73 136 0.0 0.0 0.00 0.00 0.00 74 1016.8
20210801031555 73 181 1.0 0.0 0.00 0.00 0.00 74 1016.8
20210801030026 74 194 1.0 0.0 0.00 0.00 0.00 73 1016.8
20210801024538 74 182 1.0 0.0 0.00 0.00 0.00 73 1016.5
20210801023036 73 173 1.0 0.0 0.00 0.00 0.00 75 1016.5
20210801021529 74 150 1.0 0.0 0.00 0.00 0.00 78 1016.1
20210801020038 74 146 2.0 0.0 0.00 0.00 0.00 79 1016.1
20210801014534 74 135 1.0 0.0 0.00 0.00 0.00 77 1015.8
20210801013037 75 135 0.0 0.0 0.00 0.00 0.00 74 1015.8
20210801011541 75 144 2.0 0.0 0.00 0.00 0.00 77 1015.8
20210801010039 74 152 3.0 0.0 0.00 0.00 0.00 82 1015.8
20210801004529 74 146 4.0 0.0 0.00 0.00 0.00 83 1015.8
20210801003105 75 64 2.0 0.0 0.00 0.00 0.00 82 1015.8
20210801001538 76 181 1.0 0.0 0.00 0.00 0.00 82 1015.8
20210801000038 76 355 2.0 0.0 0.00 0.00 0.00 80 1015.8
20210731234526 76 201 1.0 0.0 0.00 0.00 0.00 77 1015.8
20210731233033 76 194 2.0 0.0 0.00 0.00 0.00 78 1015.8
20210731231528 76 182 2.0 0.0 0.00 0.00 0.00 82 1016.1
20210731230026 76 286 0.0 0.0 0.00 0.00 0.00 82 1016.5
20210731223036 76 180 0.0 0.0 0.00 0.00 0.00 83 1016.8
20210731221527 76 269 2.0 0.0 0.00 0.00 0.00 81 1016.8
20210731220036 76 90 1.0 0.0 0.00 0.00 0.00 79 1016.8
20210731214527 76 126 2.0 0.0 0.00 0.00 0.00 79 1016.5
20210731213033 76 163 2.0 0.0 0.00 0.00 0.00 82 1016.5
20210731211530 75 192 1.0 0.0 0.00 0.00 0.00 82 1016.8
20210731210035 74 143 2.0 0.0 0.00 0.00 0.00 82 1016.8
20210731203029 75 88 2.0 0.0 0.00 0.00 0.00 80 1016.5
20210731201529 75 160 0.0 0.0 0.00 0.00 0.00 78 1016.8
20210731200028 75 132 3.0 0.0 0.00 0.00 0.00 76 1016.5
20210731194527 77 19 2.0 0.0 0.00 0.00 0.00 73 1016.5
20210731193029 77 146 1.0 0.0 0.00 0.00 0.00 72 1016.5
20210731191531 77 8 0.0 0.0 0.00 0.00 0.00 72 1016.5
20210731190029 76 313 2.0 0.0 0.00 0.00 0.00 73 1016.5
20210731184524 75 340 1.0 0.0 0.00 0.00 0.00 78 1016.5
20210731183033 74 182 1.0 0.0 0.00 0.00 0.00 80 1016.5
20210731181526 73 180 1.0 0.0 0.00 0.00 0.00 81 1016.1
20210731180026 73 186 1.0 0.0 0.00 0.00 0.00 81 1016.1
20210731174524 73 182 0.0 0.0 0.00 0.00 0.00 78 1016.1
20210731173026 72 163 1.0 0.0 0.00 0.00 0.00 79 1016.1
20210731171528 71 173 1.0 0.0 0.00 0.00 0.00 80 1016.1
20210731170031 70 136 2.0 0.0 0.00 0.00 0.00 79 1016.1
20210731164526 70 181 1.0 0.0 0.00 0.00 0.00 78 1016.1
20210731163030 70 187 2.0 0.0 0.00 0.00 0.00 77 1016.1
20210731161526 70 330 2.0 0.0 0.00 0.00 0.00 78 1016.1
20210731160026 70 171 2.0 0.0 0.00 0.00 0.00 78 1015.8
20210731154526 70 185 2.0 0.0 0.00 0.00 0.00 78 1015.8
20210731153026 70 174 3.0 0.0 0.00 0.00 0.00 77 1015.8
20210731151528 71 131 2.0 0.0 0.00 0.00 0.00 73 1015.8
20210731150032 71 203 2.0 0.0 0.00 0.00 0.00 73 1015.4
20210731144540 70 275 2.0 0.0 0.00 0.00 0.00 76 1015.4
20210731143033 71 154 1.0 0.0 0.00 0.00 0.00 74 1015.4
20210731141530 71 198 3.0 0.0 0.00 0.00 0.00 73 1015.4
20210731140027 71 202 3.0 0.0 0.00 0.00 0.00 72 1015.1
20210731134527 70 197 3.0 0.0 0.00 0.00 0.00 74 1015.1
20210731133029 70 186 3.0 0.0 0.00 0.00 0.00 75 1015.1
20210731131525 70 181 1.0 0.0 0.00 0.00 0.00 73 1015.1
20210731130029 71 79 2.0 0.0 0.00 0.00 0.00 72 1014.7
20210731124527 71 287 2.0 0.0 0.00 0.00 0.00 69 1014.7
20210731123030 71 167 4.0 0.0 0.00 0.00 0.00 68 1014.7
20210731121535 71 188 2.0 0.0 0.00 0.00 0.00 68 1014.7
20210731120038 71 185 3.0 0.0 0.00 0.00 0.00 72 1014.7
20210731114528 71 181 1.0 0.0 0.00 0.00 0.00 71 1014.7
20210731113031 71 163 3.0 0.0 0.00 0.00 0.00 69 1014.4
20210731111527 72 198 2.0 0.0 0.00 0.00 0.00 70 1014.7
20210731110032 72 196 3.0 0.0 0.00 0.00 0.00 70 1014.7
20210731104526 72 153 1.0 0.0 0.00 0.00 0.00 67 1014.7
20210731103033 73 202 1.0 0.0 0.00 0.00 0.00 65 1014.4
20210731101532 72 126 0.0 0.0 0.00 0.00 0.00 64 1014.4
20210731100029 71 183 4.0 0.0 0.00 0.00 0.00 70 1014.1
20210731094532 72 177 3.0 0.0 0.00 0.00 0.00 71 1014.4
20210731093039 72 171 3.0 0.0 0.00 0.00 0.00 68 1014.4
20210731091532 72 180 3.0 0.0 0.00 0.00 0.00 67 1014.4
20210731090030 72 310 1.0 0.0 0.00 0.00 0.00 69 1014.4
20210731084528 72 188 2.0 0.0 0.00 0.00 0.00 70 1014.4
20210731083029 73 184 2.0 0.0 0.00 0.00 0.00 68 1014.7
20210731081539 73 184 2.0 0.0 0.00 0.00 0.00 67 1014.7
20210731080033 73 174 2.0 0.0 0.00 0.00 0.00 70 1015.1
20210731074526 73 182 3.0 0.0 0.00 0.00 0.00 67 1015.1
20210731073031 73 190 3.0 0.0 0.00 0.00 0.00 67 1014.7
20210731071531 73 195 2.0 0.0 0.00 0.00 0.00 67 1015.1